Regional Weather Roundup
Issued by NWS Sioux Falls, SD

Home | Current Version | Previous Version | Text Only | Print | Product List | Glossary Off
Versions: 1 2 3 4 5 6 7 8 9 10 11 12 13 14 15 16 17 18 19 20 21 22 23 24 25 26 27 28 29 30 31 32 33 34 35 36 37 38 39 40 41 42 43 44 45 46 47 48 49 50

000
ASUS43 KFSD 260210
RWRFSD

WEATHER ROUNDUP FOR SE SOUTH DAKOTA/SW MINNESOTA/NW IOWA
NATIONAL WEATHER SERVICE SIOUX FALLS SD
800 PM CST THU DEC 25 2014

NOTE: "FAIR" INDICATES FEW OR NO CLOUDS BELOW 12,000 FEET WITH NO
SIGNIFICANT WEATHER AND OR OBSTRUCTIONS TO VISIBILITY.


SDZ038>040-050-052>070-260300-
SOUTHEAST SOUTH DAKOTA

CITY           SKY/WX    TMP DP  RH WIND       PRES   REMARKS
CHAMBERLAIN    LGT SNOW  26  24  93 N17G24    29.90R WCI  12
HURON          LGT SNOW  26  24  92 N10       29.90R VSB 1   WCI  16
MADISON        CLOUDY    27  27 100 NE14G20   29.82S WCI  15
MITCHELL       MIX PCPN  27  25  92 N20       29.86S FOG     WCI  13
SIOUX FALLS    FRZ DRZL  31  30  96 NE15      29.79R FOG     WCI  20
WINNER         CLOUDY    27  24  89 N20       29.89R WCI  13
YANKTON        CLOUDY    34  28  80 N12       29.79R WCI  25
$$

MNZ071-072-080-081-089-090-097-098-260300-
SOUTHWEST MINNESOTA

CITY           SKY/WX    TMP DP  RH WIND       PRES   REMARKS
FAIRMONT       CLOUDY    32  28  86 N8        29.78F WCI  25
JACKSON        MOCLDY    32  30  93 NE9       29.78S WCI  24
LUVERNE        CLOUDY    32  30  93 NE15      29.79S FOG     WCI  22
MARSHALL       CLOUDY    30  27  86 N9        29.85R WCI  22
MONTEVIDEO     LGT SNOW  28  28 100 NE12      29.87R WCI  18
PIPESTONE      CLOUDY    28  28 100 NE16      29.79S FOG     WCI  17
REDWOOD FALLS  CLOUDY    33  31  92 NE3       29.84R
TRACY          CLOUDY    32  31  98 N10       29.83R FOG     WCI  23
WINDOM         MOCLDY    30  30 100 N9        29.79S WCI  22
WORTHINGTON    CLOUDY    30 -17  12 N13       29.78S WCI  20
$$

IAZ001>003-012>014-020>022-031-032-NEZ013-014-SDZ071-260300-
NORTHWEST IOWA

CITY           SKY/WX    TMP DP  RH WIND       PRES   REMARKS
CHEROKEE       CLOUDY    32  32 100 NE7       29.73R WCI  25
DENISON        PTCLDY    34  34 100 E6        29.68S WCI  29
ESTHERVILLE    PTCLDY    30  29  96 N9        29.76S WCI  22
LE MARS        CLOUDY    32  32 100 NE10      29.74R WCI  24
ORANGE CITY    CLOUDY    34  30  86 NE9       29.74R WCI  26
SHELDON        MOCLDY    32  32 100 NE13      29.74S WCI  22
SIOUX CITY     CLEAR     32  29  88 N9        29.72R WCI  24
SPENCER        MOCLDY    32  29  88 NE10      29.75S WCI  24
STORM LAKE     CLEAR     32  30  93 NE8       29.73R WCI  25
$$

ABBREVIATIONS USED IN REMARKS
   TC - TEMPERATURE IN CELSIUS
  WCI - WIND CHILL INDEX
   HX - HEAT INDEX
  VSB - VISIBILITY



USA.gov is the U.S. government's official web portal to all federal, state and local government web resources and services.